Погода в Армавире

Погода в Армавире : погода сейчас, прогноз погоды и архив. Всё, что Вы хотите узнать о погоде в Армавире!

Поиск расширенной информации на нашем сайте:

Другие новости

Новости СМИ2

Главная страница сайта

Новости сайта

03.07.2017

Напоминаем, что на нашем специализированном сайте Метеоцентр.Азия вы можете получить высокодетализированные автоматические прогнозы погоды по пунктам России, СНГ и мира в авиационном формате (включающие направление и скорость ветра, видимость, явления погоды, количество и форму облачности, нижнюю и верхнюю границу облачности).

Рекомендуем: Религия и нравы

Погода в Армавире - сегодня

Время (UTC), дата Ветер
(°,м/с) 
Видим.   Явления Облачность Т
(°С)
Тd
(°С)
f(%) Тe
(°С)
Pmin
(гПа)
dP
(гПа)
Po
(мм)
O2
(г/м3)
Тmin Tmax R s Состояние
почвы
12 17.09.17 090 (В) 10 км    ясно 
+34.4 +12.3 26 +39  1013.4  -1.6  747  265           
15 17.09.17 100 (В) 10 км    ясно 
+31.4 +10.8 28 +34  1013.2  -0.4  747  268    +34.5       
18 17.09.17 130 (ЮВ) 10 км    ясно 
+24.2 +12.9 49 +30  1013.8  0.2  747  274           
21 17.09.17 тихо ()   10 км    ясно 
+16.9 +12.9 77 +22  1013.2  -1.1  746  280           
00 18.09.17 110 (В) 10 км    ясно 
+18.8 +9.1 53 +20  1012.9  -0.2  746  280           
03 18.09.17 120 (ЮВ) 10 км    ясно 
+18 +9.9 59 +20  1013.2  0.3  746  280  +16.2        сухая 
06 18.09.17 130 (ЮВ) 10 км    ясно 
+22.6 +11.9 51 +26  1013.1  0.2  746  275           
09 18.09.17 140 (ЮВ) 10 км    ясно 
+29.8 +14.1 38 +37  1011.8  -0.8  746  268           
12 18.09.17 340 (С) 10 км    ясно 
+32.4 +14.1 33 +40  1010.5  -1.1  745  265           
15 18.09.17 150 (ЮВ) 10 км    ясно 
+28.4 +17.6 52 +42  1010.4  -0.3  744  268    +34.2       
18 18.09.17 тихо ()   10 км    ясно 
+20.9 +18 83 +35  1011.6  0.8  745  275           
21 18.09.17 150 (ЮВ) 10 км    ясно 
+19.6 +16.3 81 +32  1012  0.3  745  277           
00 19.09.17 150 (ЮВ) 10 км    ясно 
+17.5 +14.8 84 +27  1012.8  0.6  746  279           
03 19.09.17 150 (ЮВ) 10 км    ясно 
+16 +14.2 89 +24  1013.8  0.9  746  281  +16        сухая 
06 19.09.17 180 (Ю) 10 км  дымка  10/10 300 м 
[St]
+21.4 +18.8 85 +38  1014.5  747  275  +16         
09 19.09.17 010 (С) 10 км    ясно 
+31.5 +14 35 +39  1013  -0.9  746  267           
12 19.09.17 320 (СЗ) 10 км    ясно 
+33.5 +11 25 +36  1011.9  -1  746  266           
15 19.09.17 330 (СЗ) 10 км    3/0 верхняя 
[Ci fib]
+29.2 +13.6 38 +36  1012  0.1  746  269    +33.6       
18 19.09.17 тихо ()   10 км    ясно 
+19.7 +15.1 75 +29  1013.5  0.9  746  277           
21 19.09.17 120 (ЮВ) 10 км    ясно 
+16.3 +14.2 87 +25  1013.7  746  281           
00 20.09.17 150 (ЮВ) 10 км    ясно 
+15.4 +13.4 88 +23  1013.8  746  282           
03 20.09.17 130 (ЮВ) 10 км    ясно 
+16.1 +12.4 79 +22  1014.3  0.5  747  282  +14.7        сухая 
06 20.09.17 140 (ЮВ) 10 км    ясно 
+22.2 +14 60 +29  1014.3  0.5  747  276           
09 20.09.17 110 (В) 10 км    ясно 
+32.5 +11.2 27 +35  1012.6  -1.2  746  267           
12 20.09.17 080 (В) 10 км    ясно 
+35.8 +1.8 12 +36  1011.5  -0.9  746  265           
Время (UTC), дата Ветер
(°,м/с) 
Видим.   Явления Облачность Т
(°С)
Тd
(°С)
f(%) Тe
(°С)
Pmin
(гПа)
dP
(гПа)
Po
(мм)
O2
(г/м3)
Тmin Tmax R s Состояние
почвы

Для получения пояснительной информации подведите курсор к названию столбца.

ПОГОДА в Армавире - архив

Всё, что Вы хотите узнать о погоде в Армавире - удобно и подробно!

Выберите нужную дату (начиная с 1 января 2015* года) и нажмите кнопку "Найти".
Будут отображены архивные сводки погоды по пункту Армавир, начиная с указанной даты.


Отображать данные в формате CSV (для использования в таблицах Excel)


Внимание! Наш архив погоды предназначен исключительно для личного некоммерческого использования в познавательных целях. Если Вам необходимы официальные справки о состоянии погоды (для производственных, юридических, коммерческих и т.п. целей), обращайтесь в органы Росгидромета.

*Примечание: данная дата относится к архиву по метеостанциям СССР (Россия, СНГ, Балтия).
Архив по метеостанциям Зарубежной Европы и Азии (кроме Китая) хранится 10 дней, по другим регионам земного шара (Китай, Африка, Америка, Австралия, Океания) - 1 день.

Армавир - район местоположения метеостанции


Название, широта, долгота, высота метеостанции:
Армавир 45°ш. 41.1°д. 159 м над ур. моря [Российская Федерация]

Дополнительная информация

В oтличие oт бoльшинства пoгoдных сайтoв мы публикуем пoдрoбную метеoинфoрмацию в детальнoм прoфессиoнальнoм фoрмате.

Характеристики температуры и влажнoсти вoздуха измеряются на высoте 2 м в тени вдали oт зданий и деревьев.
Скoрoсть ветра измеряется на высoте 10 м (на урoвне рoста челoвека скoрoсть ветра ниже в 1.5-2 раза). Если метеoстанция нахoдится в гoрoде или в лесу, тo скoрoсть ветра занижена на 2-4 м/с пo сравнению с oткрытым местoм. Скoрoсть ветра над акватoриями крупных рек и oзёр, а также на вершинах хoлмoв на 2-5 м/с выше, чем в oбычных услoвиях.
Атмoсфернoе давление в разных тoчках местнoсти мoжет значительнo oтличаться oт давления на метеoстанции, в зависимoсти oт услoвий рельефа (при пoдъёме на 10 м давление пoнижается примернo на 1 мм рт.ст.).